Poplar Bluff, MO

3:23 AM CDT on July 28, 2017 (GMT -0500)
Poplar Bluff Municipal

Weather History for KPOF - October, 2011

Change the Weather History Date:

Friday, October 21, 2011

  Actual Average Record
Temperature  
Mean Temperature 52 °F -  
Max Temperature 66 °F 68 °F 89 °F (1920)
Min Temperature 37 °F 41 °F 24 °F (1952)
Degree Days  
Heating Degree Days 14    
Growing Degree Days 2 (Base 50)    
Moisture  
Dew Point 34 °F    
Average Humidity 58    
Maximum Humidity 89    
Minimum Humidity 26    
Precipitation  
Precipitation 0.00 in - - ()
Sea Level Pressure  
Sea Level Pressure 30.16 in    
Wind  
Wind Speed 4 mph (WNW)    
Max Wind Speed 9 mph    
Max Gust Speed -    
Visibility 10 miles    
Events      
Averages and records for this station are not official NWS values.
T = Trace of Precipitation, MM = Missing Value Source: NWS Daily Summary

Daily Weather History Graph

Daily Weather History Graph

Search for Another Location

Airport or City:

Trip Planner

Search our weather history database for the weather conditions in past years. The results will help you decide how hot, cold, wet, or windy it might be!

Date:

Astronomy

Oct. 21, 2011 Rise Set
Actual Time 7:14 AM CDT 6:17 PM CDT
Civil Twilight 6:47 AM CDT 6:43 PM CDT
Nautical Twilight 6:17 AM CDT 7:13 PM CDT
Astronomical Twilight 5:47 AM CDT 7:43 PM CDT
Moon 1:13 AM CDT (10/21) 2:53 PM CDT (10/21)
Length of Visible Light 11h 55m
Length of Day
11h 03m
Waning Crescent, 33% of the Moon is Illuminated
Oct 21
Waning Crescent
Oct 26
New
Nov 2
First Quarter
Nov 10
Full
Nov 18
Last Quarter

Hourly Weather History & Observations

Time (CDT) Temp. Windchill Dew Point Humidity Pressure Visibility Wind Dir Wind Speed Gust Speed Precip Events Conditions
1:53 AM 41.0 °F 39.0 °F 34.0 °F 76% 30.10 in 10.0 mi WNW 3.5 mph - N/A   Clear
2:53 AM 41.0 °F 37.1 °F 34.0 °F 76% 30.12 in 10.0 mi West 5.8 mph - N/A   Clear
4:53 AM 39.0 °F 34.0 °F 33.1 °F 79% 30.13 in 10.0 mi WNW 6.9 mph - N/A   Clear
5:53 AM 37.9 °F 35.5 °F 32.0 °F 79% 30.14 in 10.0 mi NW 3.5 mph - N/A   Clear
7:53 AM 39.9 °F 36.7 °F 33.1 °F 77% 30.18 in 10.0 mi NW 4.6 mph - N/A   Clear
8:53 AM 45.0 °F 41.8 °F 35.1 °F 68% 30.21 in 10.0 mi NW 5.8 mph - N/A   Clear
9:53 AM 50.0 °F - 35.1 °F 57% 30.22 in 10.0 mi NW 6.9 mph - N/A   Clear
10:53 AM 57.0 °F - 34.0 °F 42% 30.22 in 10.0 mi NW 8.1 mph - N/A   Clear
11:53 AM 59.0 °F - 30.0 °F 33% 30.21 in 10.0 mi NW 4.6 mph - N/A   Clear
12:53 PM 62.1 °F - 30.9 °F 31% 30.19 in 10.0 mi SW 8.1 mph - N/A   Clear
1:53 PM 63.0 °F - 30.9 °F 30% 30.16 in 10.0 mi Variable 3.5 mph - N/A   Clear
2:53 PM 64.0 °F - 30.0 °F 28% 30.15 in 10.0 mi SSW 3.5 mph - N/A   Clear
3:53 PM 66.0 °F - 30.0 °F 26% 30.14 in 10.0 mi West 9.2 mph - N/A   Clear
4:53 PM 64.9 °F - 28.9 °F 26% 30.14 in 10.0 mi WNW 6.9 mph - N/A   Clear
5:53 PM 64.0 °F - 30.9 °F 29% 30.14 in 10.0 mi Calm Calm - N/A   Clear
6:53 PM 52.0 °F - 36.0 °F 54% 30.14 in 9.0 mi Calm Calm - N/A   Clear
7:53 PM 48.0 °F - 39.0 °F 71% 30.15 in 10.0 mi Calm Calm - N/A   Clear
8:53 PM 44.1 °F - 37.9 °F 79% 30.15 in 10.0 mi Calm Calm - N/A   Clear
9:53 PM 43.0 °F - 37.9 °F 82% 30.15 in 10.0 mi Calm Calm - N/A   Clear
10:53 PM 41.0 °F - 37.0 °F 86% 30.16 in 10.0 mi Calm Calm - N/A   Clear
11:53 PM 39.9 °F - 37.0 °F 89% 30.14 in 10.0 mi Calm Calm - N/A   Clear